Location: Carnetin
(48.9010°N, 2.7059°E)
Time: 20:50:38
(UTC+00:00)

Cosmos 1825 - Pass Details

Date: 06 June 2022
Orbit: 496 x 499 km, 82.5° (Epoch: 24 June)

Event Time Altitude Azimuth Distance (km) Brightness Sun altitude
Exits shadow 02:47:11 - 202° (SSW) 1,748 4.3 -8.1°
Reaches altitude 10° 02:47:19 10° 202° (SSW) 1,694 4.2 -8.0°
Maximum altitude 02:50:59 57° 282° (WNW) 590 2.3 -7.6°
Drops below altitude 10° 02:54:41 10° 2° (N) 1,710 5.6 -7.2°
Sets 02:56:50 0° 7° (N) 2,599 6.7 -7.0°
